www.pogodaiklimat.ru

Погода и климат >> Архив погоды >> Малайзия >> Ipoh


ПОГОДА в Ipoh

  • Прогноз погоды в Ipoh
  • Монитор погоды в Ipoh
  • Климат города

АРХИВ ПОГОДЫ в Ipoh

Время (UTC), дата Ветер
(напр.,м/с)
 
Видим.   Явления Облачность Т
(С)
Тd
(С)
f
(%)
Тe
(С)
Тes
(С)
Комфортность P
(гПа)
Po
(гПа)
Тmin
(С)
Tmax
(С)
R
(мм)
R24
(мм)
S
(см)
12 18.02 ЮЗ 2 10 км мгла {гроза, ливн. осадки} 9/1 900 м
[Sc Ac und Ci sp]
+24.2 +23.1 94 +32 +32 очень
душно
1008.3 1003.6 +34.6 7
18 18.02 В 2 9000 м мгла 9/3 900 м
[Sc Ac lent Cs]
+25.1 +22.7 87 +33 +33 очень
душно
1010.4 1005.7
00 19.02 СВ 2 9000 м мгла 9/3 600 м
[Cu hum Ac lent Ci sp]
+23.8 +21.6 87 +30 +31 очень
душно
1009.8 1005.1 +23.1 7
06 19.02 Ю 2 9000 м мгла 8/1 600 м
[Cu med, cong Ac lent Ci fib]
+34.0 +23.3 54 +45 +57 опасность
перегрева
1007.5 1002.8
12 19.02 штиль 0 8000 м в посл. час гроза {дождь} 9/5 150 м
[Cb cap Ac lent Cs]
+24.3 +23.9 98 +33 +33 очень
душно
1008.0 1003.3 +34.8 13
18 19.02 СВ 2 10 км дымка 9/3 900 м
[Sc Ac und Ci sp]
+24.6 +23.8 95 +33 +33 очень
душно
1010.0 1005.3
00 20.02 С 1 8000 м дымка 9/1 300 м
[Cu Sc Ac und Ci sp]
+23.7 +23.2 97 +32 +32 очень
душно
1010.0 1005.3 +23.6 13
06 20.02 Ю 2 11 км мгла 9/3 600 м
[Cu med, cong Ac lent Ci sp]
+31.8 +24.4 65 +44 +52 опасность
перегрева
1007.4 1002.7
12 20.02 ЮЗ 2 10 км гроза без осадков {ливн. осадки} 9/5 180 м
[Cb cap Ac lent Cs]
+24.5 +23.4 94 +33 +33 очень
душно
1007.7 1003.0 +33.0 5
18 20.02 С 2 8000 м мгла {гроза} 9/1 900 м
[Sc Ac lent Ci sp]
+24.6 +23.4 93 +33 +33 очень
душно
1008.2 1003.5
00 21.02 СВ 3 11 км мгла 9/1 500 м
[Cb calv Ac und Ci sp]
+23.5 +22.0 91 +30 +31 очень
душно
1008.2 1003.5 +23.1 5
06 21.02 штиль 0 13 км мгла 9/4 600 м
[Cu med, cong Ac trans Ci sp]
+32.6 +23.7 60 +44 +54 опасность
перегрева
1007.0 1002.3
12 21.02 Ю 1 10 км зарница {гроза, ливн. осадки} 9/4 500 м
[Cb cap Ac lent Cs]
+26.0 +23.3 85 +35 +35 очень
душно
1006.7 1002.0 +33.7 0.0
18 21.02 СВ 2 10 км мгла 9/1 900 м
[Sc Ac lent Ci sp]
+25.3 +23.7 91 +34 +34 очень
душно
1008.5 1003.8
00 22.02 штиль 0 11 км мгла 9/1 180 м
[Cu Sc Ac trans Ci sp]
+23.7 +22.5 93 +31 +32 очень
душно
1008.3 1003.6 +23.5 0.0
06 22.02 Ю 2 11 км мгла 9/3 600 м
[Cu med, cong Ac lent Ci sp]
+32.2 +24.0 62 +44 +53 опасность
перегрева
1007.1 1002.4
12 22.02 С 1 10 км гроза без осадков 9/3 500 м
[Cb cap Ac trans Cs]
+26.5 +23.6 84 +36 +36 очень
душно
1007.0 1002.3 +32.6
18 22.02 СВ 3 9000 м мгла 9/3 900 м
[Sc Ac lent Ci sp]
+25.0 +23.3 90 +33 +33 очень
душно
1009.4 1004.7
00 23.02 штиль 0 9000 м мгла 9/4 240 м
[Cb cap Ac lent Ci sp]
+24.0 +23.1 95 +32 +32 очень
душно
1010.4 1005.7 +23.6
06 23.02 Ю 2 10 км мгла 9/3 500 м
[Cb calv Ac und Ci sp]
+30.1 +24.2 71 +42 +50 опасность
перегрева
1009.1 1004.4
12 23.02 ЮВ 1 9000 м гроза, ливневой дождь 9/4 150 м
[Cb cap Ac trans Ci sp]
+25.0 +24.1 95 +34 +34 очень
душно
1010.0 1005.3 +31.3 0.2
18 23.02 СВ 2 6000 м слабый дождь {гроза} 9/4 150 м
[Sc Ac und Cs]
+24.2 +23.8 98 +33 +33 очень
душно
1011.9 1007.2 14
00 24.02 В 1 6000 м дымка {дождь} 9/3 300 м
[Cu Sc Ac und Ci sp]
+24.1 +23.7 98 +33 +33 очень
душно
1011.3 1006.6 +23.5 14
06 24.02 В 2 12 км мгла 9/4 500 м
[Cb cap Ac trans Ci sp]
+32.5 +22.8 57 +43 +50 опасность
перегрева
1009.6 1004.9
12 24.02 В 1 10 км в посл. час гроза 9/1 900 м
[Sc Ac lent Ci sp]
+25.9 +24.1 90 +36 +36 очень
душно
1010.0 1005.3 +33.0
18 24.02 В 1 10 км мгла 9/3 900 м
[Sc Ac trans Ci sp]
+25.0 +24.0 94 +34 +34 очень
душно
1010.1 1005.4
00 25.02 С 2 13 км мгла 9/4 500 м
[Cb cap Ac trans Ci sp]
+24.1 +22.3 90 +31 +32 очень
душно
1011.5 1006.8 +24.1
06 25.02 СЗ 2 14 км мгла 9/4 500 м
[Cb cap Ac trans Ci sp]
+33.3 +22.6 54 +43 +50 опасность
перегрева
1009.5 1004.8

 

Местоположение метеостанции Ipoh (Малайзия): широта 4.57 долгота 101.10 высота над уровнем моря 39 м.

В архиве по умолчанию представлена погода в Ipoh за последнюю неделю. Архивные данные за месяц целиком и за предыдущие месяцы, начиная с января 2011 года, Вы можете получить, выбрав интересующий диапазон дат из раскрывающегося списка и нажав кнопку "Ввод!".

Внимание! Время в таблицах - всемирное. Для получения местного времени необходимо прибавить поправку, которая в Ipoh равна 7 ч.

Смотрите также архив погоды в соседних городах и на ближайших метеорологических станциях:

Погода в Cameron Highlands (Малайзия) (32 км)
Погода в Sitiawan (Малайзия) (59 км)
Погода в Penang (Малайзия) (124 км)
Погода в Butterworth Air Base (Малайзия) (128 км)
Погода в Kuala Lumpur (Малайзия) (169 км)
Погода в Alor Star (Малайзия) (197 км)
Погода в Kuala Lumpur Int Airport (Малайзия) (216 км)
Погода в Yala Agromet (Таиланд) (218 км)
Погода в Narathiwat (Таиланд) (220 км)
Погода в Kota Bharu (Малайзия) (221 км)

Пояснения к столбцам:

Ветер - указаны скорость ветра в м/с - средняя за 10 мин, порывы в срок и между сроками (в фигурных скобках) и направление, откуда дует ветер: С - северный, СВ - северо-восточный, В - восточный, ЮВ - юго-восточный, Ю - южный, ЮЗ - юго-западный, З - западный, СЗ - северо-западный.
Видимость - горизонтальная дальность видимости в метрах или километрах. При видимости от 1 до 10 км при отсутствии осадков обычно наблюдается дымка, при ухудшении видимости до 1 км и менее - туман. В сухую погоду видимость может ухудшаться дымом, пылью или мглою.
Явления - указаны атмосферные явления, наблюдавшиеся в срок или в последний час перед сроком; фигурными скобками обозначены явления, наблюдавшиеся между сроками (за 1-3 часа до срока); квадратными скобками обозначены град или гололедные отложения с указанием их диаметра в мм.
Облачность - указаны через наклонную черту общая и нижняя облачность в баллах и высота нижней границы облаков в метрах; квадратными скобками обозначены формы облаков: Ci - перистые, Cs - перисто-слоистые, Cc - перисто-кучевые, Ac - высококучевые, As - высокослоистые, Sc - слоисто-кучевые, Ns - слоисто-дождевые, Cu - кучевые, Cb - кучево-дождевые. Подробнее классификацию облаков см. в Атласе облаков (PDF).
T - Температура воздуха - температура, измеренная на высоте 2 м над землей.
Td - Температура точки росы - температура, при понижении до которой содержащийся в воздухе водяной пар достигнет насыщения.
f - Относительная влажность воздуха - влажноcть воздуха, измеренная на высоте 2 м над землей.
Te - Эффективная температура - температура, которую ощущает одетый по сезону человек в тени. Характеристика душности погоды. При расчете учитывается влияние влажности воздуха и скорости ветра на теплоощущения человека.
Tes - Эффективная температура на солнце - температура, которую ощущает человек, с поправкой на солнечный нагрев. Характеристика знойности погоды. Зависит от высоты солнца над горизонтом, облачности и скорости ветра. Ночью, в пасмурную погоду, а также при ветре 12 м/с и более поправка равна нулю.
P - Атмосферное давление - приведенное к уровню моря атмосферное давление.
Po - Атмосферное давление - измеренное на уровне метеостанции атмосферное давление.
Tmin - Минимальная температура - минимум температуры воздуха на высоте 2 м над землей.
Tmax - Максимальная температура - максимум температуры воздуха на высоте 2 м над землей.
R - Количество осадков - Количество выпавших осадков за период времени, мм. При наведении курсора мыши на число - период времени, за который выпало указанное количество осадков.
R24 - Количество осадков - Количество выпавших осадков за 24 часа, мм.
S - Снежный покров - Высота снежного покрова, см. При наведении курсора мыши на число - состояние снежного покрова и степень покрытия местности в баллах.